Vorticity
nan nan nan nan nan nan nan nan nan nan nan nan nan nan nan nan nan nan nan nan nan nan nan nan nan nan nan nan nan nan nan nan nan nan nan nan nan nan nan nan nan nan nan nan nan
nan 6 7 7 7 7 7 7 7 8 7 6 7 7 6 12 17 11 16 7 1 9 5 2 5 6 3 7 5 5 5 4 2 1 2 -3 -1 1 2 1 2 2 6 5 nan
nan 8 9 8 7 6 6 7 6 7 8 7 6 7 8 15 13 8 17 22 19 8 1 2 9 5 0 6 6 3 7 2 -2 4 2 0 2 1 1 2 5 3 4 6 nan
nan 7 7 6 7 8 8 7 6 7 6 7 8 7 13 17 12 -1 -3 16 32 21 5 8 8 4 9 6 0 2 8 7 3 2 2 3 3 5 4 6 4 5 9 9 nan
nan 7 7 7 7 7 8 8 8 7 6 7 7 9 15 8 7 -7 -5 12 17 17 16 11 6 4 4 8 9 7 5 7 6 5 2 7 4 4 2 10 10 12 9 8 nan
nan 7 7 7 7 8 8 9 8 7 7 7 8 12 10 1 2 -4 -2 9 13 10 10 4 1 6 8 15 6 6 12 8 9 9 8 10 6 10 8 7 7 9 7 8 nan
nan 7 6 7 8 8 8 9 9 7 7 8 10 12 10 7 -1 0 5 7 3 6 10 9 3 0 9 14 12 6 13 12 12 7 7 11 11 10 5 10 9 7 9 10 nan
nan 8 8 7 7 8 9 9 7 9 13 17 16 11 9 14 7 8 8 8 10 5 6 12 15 6 2 5 15 14 10 8 9 10 13 8 5 8 15 12 10 10 9 9 nan
nan 8 8 8 8 8 9 7 10 21 25 21 13 8 7 11 14 13 12 7 12 18 8 12 15 11 8 5 3 9 7 9 5 10 11 1 4 8 6 6 7 8 8 8 nan
nan 8 8 9 9 10 11 15 23 22 16 8 4 6 4 4 2 12 23 16 10 8 9 10 10 6 5 11 3 -1 3 1 4 8 5 -0 3 3 4 6 7 7 8 8 nan
nan 9 9 9 9 11 17 23 21 9 1 2 -0 -3 -2 3 6 6 9 18 19 9 8 7 1 12 4 -3 1 4 6 5 8 7 7 5 7 8 7 5 8 7 7 8 nan
nan 10 10 9 10 19 16 8 9 5 9 12 10 7 9 5 9 5 11 12 14 13 3 6 4 8 9 11 8 5 5 7 6 5 5 8 6 5 8 11 10 9 9 9 nan
nan 10 10 10 18 16 8 7 1 10 12 14 22 16 21 16 7 9 11 10 11 17 12 -3 7 9 11 7 10 5 7 5 0 4 5 13 12 9 9 9 8 8 10 11 nan
nan 10 9 18 17 6 12 7 5 12 10 18 15 14 11 10 12 22 9 5 9 17 9 7 21 12 9 6 6 10 8 7 8 6 5 5 13 12 9 5 6 9 12 13 nan
nan 9 12 17 14 7 5 4 14 12 5 13 11 5 7 10 5 23 21 4 6 11 9 13 13 9 12 13 -0 7 16 17 12 5 8 4 7 8 9 10 12 14 12 13 nan
nan 10 19 19 12 8 4 12 16 8 8 5 3 -3 8 14 13 14 18 18 9 9 9 8 12 14 7 11 8 5 10 11 10 14 12 11 8 4 12 9 10 11 12 10 nan
nan 15 21 13 10 7 10 16 10 3 7 7 -0 1 7 12 13 9 19 25 12 12 13 11 4 10 19 9 14 6 1 6 10 10 11 18 10 8 8 10 6 5 6 11 nan
nan 23 18 10 7 9 10 12 7 8 4 -1 4 10 14 11 9 4 22 26 12 1 13 14 12 13 9 6 13 14 -4 0 6 7 10 18 10 11 8 13 15 8 9 13 nan
nan 20 10 10 16 13 9 7 8 6 5 6 9 15 10 3 6 11 11 24 29 13 8 14 9 15 9 12 6 6 8 -2 2 8 12 5 6 13 15 13 16 14 14 13 nan
nan 10 8 12 15 10 9 7 5 2 7 14 14 8 2 4 10 13 5 6 13 13 17 20 18 16 17 6 5 7 8 7 9 5 10 4 9 8 9 18 14 12 14 13 nan
nan 11 7 8 11 10 8 9 8 4 10 12 8 8 9 7 11 10 6 -1 5 8 15 16 19 20 10 11 4 7 5 5 10 8 5 10 15 15 7 7 7 13 19 14 nan
nan 8 7 10 13 7 4 8 11 10 11 13 10 12 6 10 14 11 10 4 1 12 14 15 15 22 17 9 11 7 7 3 5 10 1 6 11 14 13 10 15 16 15 13 nan
nan 11 9 10 7 6 10 14 10 6 7 12 8 8 12 16 14 12 10 9 5 9 3 14 20 11 11 14 24 10 5 -1 1 15 14 -2 5 -1 5 12 14 17 13 11 nan
nan 11 11 10 7 4 10 10 8 11 11 9 9 5 14 15 12 16 11 9 7 2 8 17 12 15 8 5 19 24 6 2 -1 1 13 10 -3 -5 1 8 17 18 13 11 nan
nan 11 9 5 4 7 12 9 7 11 12 11 12 4 8 7 6 10 13 12 6 2 14 21 14 12 6 5 19 29 14 7 1 -3 0 12 7 5 3 11 17 16 11 10 nan
nan 9 9 8 8 11 12 8 8 8 7 9 4 -1 8 12 8 4 7 6 7 6 10 13 10 14 20 14 10 9 20 21 9 1 -1 -0 7 9 6 13 14 13 10 8 nan
nan nan nan nan nan nan nan nan nan nan nan nan nan nan nan nan nan nan nan nan nan nan nan nan nan nan nan nan nan nan nan nan nan nan nan nan nan nan nan nan nan nan nan nan nan
CAPE
8 8 4 2 3 6 6 6 8 6 7 10 12 7 1 0 0 0 0 0 0 0 0 0 0 0 0 0 0 0 0 0 0 0 0 0 0 0 0 0 0 0 0 0 0
13 8 4 8 5 1 1 2 4 12 10 12 16 10 4 0 0 0 0 0 0 0 0 0 0 0 0 0 0 0 0 0 0 0 0 0 0 0 0 0 0 0 0 0 0
22 30 30 24 16 12 10 8 5 5 5 4 10 7 12 0 0 0 0 0 0 3 0 0 0 0 0 0 0 0 0 0 0 0 0 0 0 0 0 0 0 1 0 0 0
16 17 17 10 8 15 14 14 14 12 5 8 8 8 20 0 0 0 0 0 152 0 0 0 0 0 0 0 0 0 0 0 0 0 0 0 0 0 0 0 0 1 0 0 0
21 19 15 13 11 10 11 11 15 13 12 2 6 5 5 0 0 0 0 0 0 0 0 0 0 0 0 0 0 0 0 0 0 0 0 0 0 0 0 0 0 0 0 0 0
19 24 20 15 13 8 10 9 12 12 9 10 4 14 4 0 0 0 0 0 0 0 0 0 0 0 0 0 0 0 0 0 0 0 0 0 0 0 0 0 1 0 0 0 0
26 26 20 15 9 13 14 12 11 8 9 4 7 7 2 0 0 0 0 0 0 0 0 0 0 0 0 0 0 0 0 0 0 0 0 0 0 0 0 0 0 0 0 0 0
33 38 30 23 11 10 6 12 9 3 10 10 15 6 1 0 0 0 0 0 0 0 0 0 0 0 0 0 0 0 0 0 0 0 0 0 0 0 0 0 0 0 0 0 0
18 37 25 24 18 13 11 10 0 0 4 3 3 8 0 0 0 0 0 0 0 0 0 0 0 0 0 0 0 0 0 0 0 0 0 0 0 0 0 0 0 0 0 0 0
38 42 29 12 10 17 23 0 0 0 0 0 3 0 0 0 0 0 0 0 0 0 0 0 0 0 0 0 0 0 0 0 0 0 0 0 0 0 0 0 0 0 0 0 0
36 49 34 32 21 22 4 0 0 1 0 0 0 0 0 0 0 0 0 0 0 0 0 0 0 0 0 0 0 0 0 0 0 0 0 0 0 0 0 0 0 0 0 0 0
23 29 26 19 21 19 0 0 5 0 2 0 0 0 0 0 0 0 0 0 0 0 0 0 0 0 0 0 0 0 0 0 0 0 0 0 0 0 0 0 0 0 0 0 0
37 31 26 27 25 0 0 0 0 0 6 0 0 0 0 0 0 0 0 0 0 0 0 0 0 0 0 0 0 0 0 0 0 0 0 0 0 0 0 0 0 0 0 0 0
26 25 32 35 0 0 0 0 0 1 15 0 0 0 0 0 0 0 0 0 0 0 0 0 0 0 0 0 0 0 0 0 0 0 0 0 0 0 0 0 0 0 0 0 0
28 17 32 33 11 3 0 0 0 3 0 0 1 0 0 0 0 0 0 0 0 0 0 0 0 0 0 0 0 0 0 0 0 0 0 0 0 0 0 0 0 0 0 0 0
24 13 12 1 9 0 0 0 5 45 2 0 0 0 0 0 0 0 0 0 0 0 0 0 0 0 0 0 0 0 0 0 0 0 0 0 0 0 0 0 0 0 0 0 0
13 4 3 3 0 0 0 0 28 22 0 0 0 0 0 0 0 1 0 0 0 0 0 0 0 0 0 0 0 0 0 0 0 0 0 0 0 0 0 0 0 0 0 0 0
7 0 0 0 1 18 7 49 14 0 2 0 2 0 0 0 0 0 0 2 0 0 0 0 0 0 0 0 0 0 0 0 0 0 0 0 0 0 0 0 0 0 0 0 0
0 0 0 0 0 5 40 12 1 4 22 19 0 0 0 0 4 0 0 23 0 0 0 0 0 0 0 0 0 0 0 0 0 0 0 0 0 0 0 0 0 0 0 0 0
3 1 3 0 13 54 85 2 0 23 6 4 2 0 1 0 8 2 0 15 4 0 0 0 0 0 0 0 0 0 0 0 0 0 0 0 0 0 0 0 0 0 0 0 0
0 0 0 0 13 8 37 13 3 4 9 9 10 16 10 0 32 34 15 5 12 1 0 0 0 0 0 0 0 0 0 0 0 0 0 0 0 0 0 0 0 0 0 0 0
10 0 0 0 60 1 12 14 1 12 7 8 20 46 38 18 12 32 11 1 7 14 4 0 0 0 0 0 0 0 0 0 0 0 0 0 0 0 0 0 0 0 0 0 0
8 2 0 10 7 8 1 0 0 4 4 3 10 12 17 16 23 20 4 0 3 16 18 4 0 0 0 0 0 0 0 0 0 0 0 0 0 0 0 0 0 0 0 0 0
5 1 0 43 6 7 5 0 3 0 19 15 18 26 39 35 31 16 15 6 12 10 38 9 0 0 0 0 0 0 0 0 0 0 0 0 0 0 0 0 0 0 0 0 0
1 1 16 5 8 18 2 3 6 15 4 7 25 23 15 15 4 64 20 20 17 19 0 1 0 0 0 0 0 0 0 0 0 0 0 0 0 0 0 0 0 0 0 0 0
22 31 23 25 13 16 4 7 7 8 8 0 25 9 2 1 1 5 45 39 35 15 1 0 0 0 0 0 0 0 0 0 0 0 0 0 0 0 0 0 0 0 0 0 0
25 31 44 14 6 15 11 2 8 45 0 7 18 22 2 0 0 0 0 0 0 26 5 1 1 0 0 0 0 0 0 0 0 0 0 0 0 0 0 0 0 2 0 1 1